Location: ??????????
(42.1626°N, 44.1160°E)
Time: 07:23:45
(UTC+00:00)

Cosmos 1844 - Pass Details

Date: 23 June 2021
Orbit: 823 x 867 km, 70.9° (Epoch: 03 August)

Event Time Altitude Azimuth Distance (km) Brightness Sun altitude
Rises 18:01:16 0° 331° (NNW) 3,372 8.6 -11.8°
Reaches altitude 10° 18:03:44 10° 328° (NNW) 2,439 7.6 -12.1°
Maximum altitude 18:09:11 57° 251° (WSW) 980 4.2 -12.8°
Enters shadow 18:14:12 12° 175° (S) 2,277 5.5 -13.4°
